Colorado City, AZ

9:10 PM MST on January 18, 2018 (GMT -0700)
Colorado City Municipal

Weather History for KAZC - November, 2013

Change the Weather History Date:

Friday, November 1, 2013

  Actual Average (KSGU) Record (KSGU)
Temperature  
Mean Temperature 46 °F -  
Max Temperature 65 °F 70 °F 87 °F (1945)
Min Temperature 28 °F 40 °F 21 °F (1972)
Degree Days  
Heating Degree Days 18    
Moisture  
Dew Point 33 °F    
Average Humidity 70    
Maximum Humidity 98    
Minimum Humidity 28    
Precipitation  
Precipitation 0.00 in - - ()
Sea Level Pressure  
Sea Level Pressure 30.28 in    
Wind  
Wind Speed 3 mph (SE)    
Max Wind Speed 7 mph    
Max Gust Speed -    
Visibility 10 miles    
Events      
Averages and records for this station are not official NWS values.
T = Trace of Precipitation, MM = Missing Value Source: NWS Daily Summary

Daily Weather History Graph

Daily Weather History Graph

Search for Another Location

Airport or City:

Trip Planner

Search our weather history database for the weather conditions in past years. The results will help you decide how hot, cold, wet, or windy it might be!

Date:

Astronomy

Nov. 01, 2013 Rise Set
Actual Time 6:56 AM MST 5:34 PM MST
Civil Twilight 6:29 AM MST 6:01 PM MST
Nautical Twilight 5:58 AM MST 6:31 PM MST
Astronomical Twilight 5:28 AM MST 7:02 PM MST
Moon 4:55 AM MST (11/1) 4:27 PM MST (11/1)
Length of Visible Light 11h 31m
Length of Day
10h 37m
Waning Crescent, 4% of the Moon is Illuminated
Nov 1
Waning Crescent
Nov 3
New
Nov 9
First Quarter
Nov 17
Full
Nov 25
Last Quarter

Hourly Weather History & Observations

Time (MST) Temp. Windchill Dew Point Humidity Pressure Visibility Wind Dir Wind Speed Gust Speed Precip Events Conditions
2:55 AM 32.4 °F 26.9 °F 31.1 °F 95% 30.26 in 10.0 mi ESE 5.8 mph - N/A   Clear
3:15 AM 31.1 °F 24.5 °F 30.2 °F 96% 30.26 in 10.0 mi ESE 6.9 mph - N/A   Clear
3:35 AM 31.1 °F - 30.2 °F 96% 30.26 in 10.0 mi Calm Calm - N/A   Clear
3:55 AM 31.5 °F - 30.2 °F 95% 30.26 in 10.0 mi Calm Calm - N/A   Clear
4:15 AM 30.7 °F 24.9 °F 29.3 °F 94% 30.26 in 10.0 mi ESE 5.8 mph - N/A   Clear
4:35 AM 30.0 °F 25.2 °F 29.3 °F 97% 30.26 in 10.0 mi SSE 4.6 mph - N/A   Clear
4:55 AM 30.6 °F 27.1 °F 29.8 °F 97% 30.26 in 10.0 mi SE 3.5 mph - N/A   Clear
5:15 AM 30.0 °F 25.2 °F 29.3 °F 97% 30.27 in 10.0 mi ESE 4.6 mph - N/A   Clear
5:35 AM 30.9 °F - 29.7 °F 95% 30.27 in 10.0 mi Calm Calm - N/A   Clear
5:55 AM 29.8 °F - 28.6 °F 95% 30.27 in 10.0 mi Calm Calm - N/A   Clear
6:15 AM 28.8 °F - 27.9 °F 96% 30.28 in 10.0 mi Calm Calm - N/A   Clear
6:35 AM 28.8 °F 25.0 °F 28.2 °F 98% 30.29 in 10.0 mi SE 3.5 mph - N/A   Clear
6:55 AM 29.3 °F 24.3 °F 28.6 °F 97% 30.29 in 10.0 mi SSE 4.6 mph - N/A   Clear
7:15 AM 29.1 °F - 28.4 °F 97% 30.29 in 10.0 mi Calm Calm - N/A   Clear
7:35 AM 30.4 °F - 29.8 °F 98% 30.30 in 10.0 mi Calm Calm - N/A   Clear
7:55 AM 33.4 °F - 32.4 °F 96% 30.31 in 10.0 mi Calm Calm - N/A   Clear
8:15 AM 36.7 °F - 34.0 °F 90% 30.32 in 10.0 mi Calm Calm - N/A   Clear
8:35 AM 39.6 °F - 35.4 °F 85% 30.33 in 10.0 mi Calm Calm - N/A   Clear
8:55 AM 41.7 °F - 36.3 °F 81% 30.33 in 10.0 mi Calm Calm - N/A   Clear
9:15 AM 44.4 °F - 36.0 °F 72% 30.33 in 10.0 mi Calm Calm - N/A   Clear
9:35 AM 47.7 °F - 34.9 °F 61% 30.34 in 10.0 mi Calm Calm - N/A   Clear
9:55 AM 50.2 °F - 34.5 °F 55% 30.34 in 10.0 mi Calm Calm - N/A   Clear
10:15 AM 51.4 °F - 34.3 °F 52% 30.33 in 10.0 mi Calm Calm - N/A   Clear
10:35 AM 52.2 °F - 34.0 °F 50% 30.33 in 10.0 mi Calm Calm - N/A   Clear
10:55 AM 54.0 °F - 34.0 °F 47% 30.33 in 10.0 mi Calm Calm - N/A   Clear
11:15 AM 56.3 °F - 34.3 °F 44% 30.33 in 10.0 mi WSW 3.5 mph - N/A   Clear
11:35 AM 57.9 °F - 33.6 °F 40% 30.32 in 10.0 mi Calm Calm - N/A   Clear
11:55 AM 59.4 °F - 32.2 °F 36% 30.31 in 10.0 mi Calm Calm - N/A   Clear
12:15 PM 60.3 °F - 31.8 °F 34% 30.30 in 10.0 mi NNW 4.6 mph - N/A   Clear
12:35 PM 60.3 °F - 31.3 °F 34% 30.30 in 10.0 mi WNW 3.5 mph - N/A   Clear
12:55 PM 61.0 °F - 31.1 °F 32% 30.28 in 10.0 mi Calm Calm - N/A   Clear
1:15 PM 61.7 °F - 30.7 °F 31% 30.27 in 10.0 mi NNW 5.8 mph - N/A   Clear
2:55 PM 64.9 °F - 31.5 °F 29% 30.24 in 10.0 mi Calm Calm - N/A   Clear
3:15 PM 65.3 °F - 31.6 °F 28% 30.24 in 10.0 mi NW 3.5 mph - N/A   Clear
3:35 PM 65.3 °F - 32.0 °F 29% 30.24 in 10.0 mi NNW 4.6 mph - N/A   Clear
3:55 PM 64.9 °F - 32.0 °F 29% 30.24 in 10.0 mi West 4.6 mph - N/A   Clear
4:15 PM 64.4 °F - 31.1 °F 29% 30.24 in 10.0 mi WNW 4.6 mph - N/A   Clear
4:35 PM 63.9 °F - 30.7 °F 29% 30.24 in 10.0 mi WNW 4.6 mph - N/A   Clear
4:55 PM 63.1 °F - 31.8 °F 31% 30.24 in 10.0 mi West 5.8 mph - N/A   Clear
5:15 PM 61.5 °F - 32.0 °F 33% 30.23 in 10.0 mi NW 5.8 mph - N/A   Clear
5:35 PM 58.3 °F - 32.7 °F 38% 30.24 in 10.0 mi NW 5.8 mph - N/A   Clear
5:55 PM 54.9 °F - 32.5 °F 43% 30.25 in 10.0 mi Calm Calm - N/A   Clear
6:15 PM 47.7 °F - 34.3 °F 60% 30.26 in 10.0 mi NNE 4.6 mph - N/A   Clear
6:35 PM 46.4 °F 42.9 °F 34.9 °F 64% 30.26 in 10.0 mi NNE 6.9 mph - N/A   Clear
6:55 PM 46.4 °F 43.5 °F 34.7 °F 64% 30.26 in 10.0 mi North 5.8 mph - N/A   Clear
7:15 PM 45.0 °F - 35.1 °F 68% 30.27 in 10.0 mi Calm Calm - N/A   Clear
7:35 PM 44.2 °F - 34.3 °F 68% 30.27 in 10.0 mi Calm Calm - N/A   Clear
7:55 PM 39.6 °F 36.3 °F 34.9 °F 83% 30.27 in 10.0 mi SE 4.6 mph - N/A   Clear
8:15 PM 38.8 °F - 36.0 °F 89% 30.27 in 10.0 mi Calm Calm - N/A   Clear
8:35 PM 39.6 °F - 36.5 °F 89% 30.27 in 10.0 mi Calm Calm - N/A   Clear
8:55 PM 39.7 °F - 36.3 °F 88% 30.28 in 10.0 mi Calm Calm - N/A   Clear
9:15 PM 39.6 °F 37.4 °F 36.5 °F 89% 30.28 in 10.0 mi SSE 3.5 mph - N/A   Clear
9:35 PM 37.2 °F - 35.1 °F 92% 30.29 in 10.0 mi Calm Calm - N/A   Clear
9:55 PM 37.2 °F 32.6 °F 35.2 °F 93% 30.29 in 10.0 mi SSE 5.8 mph - N/A   Clear
10:15 PM 35.1 °F 31.0 °F 33.4 °F 94% 30.29 in 10.0 mi SE 4.6 mph - N/A   Clear
10:35 PM 34.9 °F 32.0 °F 33.4 °F 94% 30.29 in 10.0 mi SE 3.5 mph - N/A   Clear
10:55 PM 36.1 °F 31.4 °F 34.5 °F 94% 30.29 in 10.0 mi South 5.8 mph - N/A   Clear
11:15 PM 36.0 °F 33.3 °F 34.2 °F 93% 30.29 in 10.0 mi South 3.5 mph - N/A   Clear
11:35 PM 35.1 °F 31.0 °F 33.1 °F 92% 30.29 in 10.0 mi SE 4.6 mph - N/A   Clear
11:55 PM 34.7 °F 31.8 °F 33.1 °F 94% 30.29 in 10.0 mi SSE 3.5 mph - N/A   Clear